Regional Weather Roundup
Issued by NWS

Home | Current Version | Previous Version | Text Only | Print | Product List | Glossary On
Versions: 1 2 3 4 5 6 7 8 9 10 11 12 13 14 15 16 17 18 19 20 21 22 23 24 25 26 27 28 29 30 31 32 33 34 35 36 37 38 39 40 41 42 43 44 45 46 47 48 49 50
000
ASUS45 KBOU 202107
RWRCO

WEATHER ROUNDUP FOR COLORADO
NATIONAL WEATHER SERVICE DENVER/BOULDER CO
200 PM MST FRI JAN 20 2017

NOTE: "FAIR" INDICATES FEW OR NO CLOUDS BELOW 12000 FEET WITH NO
SIGNIFICANT WEATHER AND/OR OBSTRUCTIONS TO VISIBILITY.

COZ001>005-013-030-031-202200-
...NORTHWEST COLORADO...

CITY           SKY/WX    TMP DP  RH WIND       PRES   REMARKS
CRAIG          CLOUDY    31  24  75 CALM      29.52F
HAYDEN         CLOUDY    28  19  69 NW7       29.51F WCI  21
MEEKER         LGT SNOW  29  26  89 CALM      29.51F FOG
MOUNT WERNER   NOT AVBL
STEAMBOAT SPGS CLOUDY    29  23  76 CALM      29.50S
WALDEN           N/A     28  19  69 SW10      29.47S WCI  19
$$

COZ006>008-011-202200-
...WEST CENTRAL VALLEYS...

CITY           SKY/WX    TMP DP  RH WIND       PRES   REMARKS
GRAND JUNCTION CLOUDY    36  33  89 NW8       29.56S
MONTROSE       PTSUNNY   39  26  59 NW3       29.56F
EAGLE          MOSUNNY   36  21  55 SW14      29.50F
RIFLE          CLOUDY    37  31  78 W21G29    29.52F
DELTA          CLOUDY    42  31  67 CALM      29.56F
NUCLA          PTSUNNY   36  27  69 SW14      29.62F
$$

COZ017>023-064>068-202200-
...SOUTHWEST COLORADO...

CITY           SKY/WX    TMP DP  RH WIND       PRES   REMARKS
DURANGO        PTSUNNY   31  21  66 SW8       29.62F WCI  23
CORTEZ         FLURRIES  34  30  85 SW5       29.62F WCI  30
PAGOSA SPRINGS LGT SNOW  28  23  81 SW13      29.62S WCI  18
TELLURIDE      NOT AVBL
WOLF CREEK PAS CLOUDY    10  10 100 S26G38    29.54F WCI -11
$$

COZ009-010-012-014-032>034-037-058>063-202200-
...CENTRAL COLORADO...

CITY           SKY/WX    TMP DP  RH WIND       PRES   REMARKS
ASPEN          CLOUDY    30  24  78 N10       29.47F WCI  21
BUENA VISTA    FAIR      33  15  47 W21       29.42F WCI  22
COPPER MTN     SNOW      19  14  79 NW13      29.44S VSB 1/2 WCI   7
BERTHOUD PASS  NOT AVBL
COTTONWOOD PAS FAIR      30   9  40 SW26G33   29.42R WCI  16
GUNNISON       PTSUNNY   23  16  74 E7        29.53F WCI  15
KREMMLING      SNOW      30  23  74 CALM      29.49F VSB 1/2
LEADVILLE      PTSUNNY   22  12  65 NW8G17    29.43F WCI  12
MONARCH PASS   CLOUDY    12  10  92 SW12G33   29.56S WCI  -2
SALIDA         FAIR      37  17  44 SW22G29   29.52S
SUNLIGHT       SNOW      19  18  93 MISG      29.52F VSB<1/4
WILKERSON PASS PTSUNNY   23  18  80 W6        29.43S WCI  16
$$

COZ069>075-202200-
...SAN LUIS VALLEY/SANGRE DE CRISTO MOUNTAINS...

CITY           SKY/WX    TMP DP  RH WIND       PRES   REMARKS
ALAMOSA        FAIR      33  16  49 SW8       29.51F WCI  26
LA VETA PASS   FAIR      27  18  69 NE29G47   29.46R WCI  11
SAGUACHE       PTSUNNY   28  21  74 CALM      29.53F
$$

COZ035-036-038>040-202200-
...NORTHERN COLORADO FRONT RANGE...

CITY           SKY/WX    TMP DP  RH WIND       PRES   REMARKS
DENVER INTL AP PTSUNNY   42  28  57 S8        29.36F
DMNS CITY PARK   N/A     45  24  44 E8        29.35S
AURORA         PTSUNNY   43  28  56 S6        29.36F
FRONT RANGE AP NOT AVBL
ERIE MUNI ARPT FAIR      47  27  45 SE5       29.34F
BOULDER MUN AP FAIR      46  28  49 E8        29.33F
CENTENNIAL     PTSUNNY   40  28  62 SE8       29.35F
BROOMFIELD     PTSUNNY   46  27  46 SE8       29.35F
FORT COLLINS   FAIR      45  27  49 SE5       29.36S
LONGMONT       FAIR      50  30  46 E9        29.36F
$$

COZ041-046-047-076>085-087-088-202200-
...PIKES PEAK/PALMER DIVIDE AND SOUTHERN FOOTHILLS...

CITY           SKY/WX    TMP DP  RH WIND       PRES   REMARKS
COLO. SPRINGS  PTSUNNY   36  29  75 E6        29.40S
A. F. ACADEMY  PTSUNNY   37  30  75 S9        29.37F
SCHRIEVER AFB  NOT AVBL
ELLICOTT       FAIR     N/A N/A N/A CALM      29.39F
FALCON         FAIR      34  31  86 S5        29.40S WCI  30
FORT CARSON    NOT AVBL
LIMON          CLOUDY    36  34  92 SW6       29.39F
MONUMENT HILL  FAIR      34  27  75 CALM      29.38F
TRINIDAD       FAIR      37  25  61 S10       29.41S
$$

COZ042>045-048>051-090-091-202200-
...NORTHEAST COLORADO...

CITY           SKY/WX    TMP DP  RH WIND       PRES   REMARKS
GREELEY ARPT   FAIR      44  29  55 NE5       29.37F
AKRON          FAIR      39  31  72 W13       29.36F
BURLINGTON     LGT SNOW  34  33  96 NW8       29.39S VSB 3/4 WCI  27
WRAY           NOT AVBL
STERLING       CLOUDY    43  34  70 W9        29.36S
HOLYOKE        FAIR      46  32  57 NW12      29.35S
FORT MORGAN    CLOUDY    43  30  60 W7        29.38S
$$

COZ086-089-092>099-202200-
...SOUTHEAST COLORADO...

CITY           SKY/WX    TMP DP  RH WIND       PRES   REMARKS
PUEBLO         FAIR      41  32  70 VRB3      29.41S
LA JUNTA       PTSUNNY   37  34  89 S5        29.44R
LAMAR          LGT RAIN  39  34  82 W9        29.41S
SPRINGFIELD      N/A     38  34  85 NW16      29.42
$$



USA.gov is the U.S. government's official web portal to all federal, state and local government web resources and services.